Weather in Leeuwarden

Netherlands     53°12′00″N   5°47′32″E
temp.,
°C
wind,
m/s
gust,
m/s
humid.,
%
clouds,
%
prec.,
mm/h
press.,
hPa
HPBL,
m
26 june, sun
sun2623:00+16e2796100 1.6 1012188
02:00+17se229699 3.3 101256
05:00+16sw4897100 0.0 1012351
08:00+17sw4690100 0.0 1013511
11:00+19sw5772100 0.0 1015934
14:00+20sw456272 0.0 10151194
17:00+20wsw3559100 0.0 10161445
20:00+17nnw337798 0.0 1016247
27 june, mon
mon2723:00+15ne4785100 0.0 1016149
02:00+15sse3692100 0.2 1016129
05:00+14ese3493100 0.3 101597
08:00+16se3489100 0.4 1015222
11:00+18ssw2281100 0.6 1015178
14:00+19sw2367100 1.1 1016685
17:00+17wnw4672100 0.2 1017337
20:00+17w46760 0.3 1018475
28 june, tue
tue2823:00+12sw33842 0.0 102062
02:00+11ssw34905 0.0 102065
05:00+11s45934 0.0 102087
08:00+15ssw47810 0.0 1021359
11:00+19sw56610 0.0 10211172
14:00+20sw56495 0.0 10201424
17:00+21w45505 0.0 10191291
20:00+17nne4574100 0.0 1019263
29 june, wed
wed2923:00+14e498334 0.0 1018142
02:00+15ese41082100 0.0 1017167
05:00+14se48785 0.0 1016116
08:00+18se47765 0.0 1016210
11:00+23sse4561100 0.0 1016542
14:00+25ssw3552100 0.0 10151627
17:00+23nw43625 0.0 1015400
20:00+19nnw35755 0.0 1015166
30 june, thu
thu3023:00+17nne348066 0.0 101551
02:00+17e34932 0.0 101463
05:00+16ese46880 0.0 101376
08:00+20se35760 0.0 1013161
11:00+25ese45568 0.0 1012517
14:00+26ese57635 0.2 1012708
17:00+26e46645 0.1 1010466
20:00+25e7125996 0.1 1008508